Home   Weather   Saint Helier   Past weeks

Flag for Jersey Past Weather in Saint Helier, Jersey — Yesterday and Last 2 Weeks

Now
43 °F

Clear.


Feels Like: 43 °F
Forecast: 49 / 52 °F
Wind: No wind

Location: Dinard Airport

Current Time: Apr 29, 2017 at 2:40:49 am

Latest Report: Apr 29, 2017 at 2:00 am


Visibility: 10 mi

Pressure: 30.04 "Hg

Humidity: 87%

Dew Point: 39 °F

Location of Saint HelierLocation

Past Weather in Saint Helier — Graph

°F

Saint Helier Temperature Yesterday

Maximum temperature yesterday: 55 °F (at 3:30 pm)
Minimum temperature yesterday: 45 °F (at 11:30 pm)
Average temperature yesterday: 50 °F

High & Low Weather Summary for the Past Weeks

 TemperatureHumidityPressure
High63 °F (Apr 23, 2:00 pm)100% (Apr 14, 1:00 am)30.63 "Hg (Apr 14, 1:00 am)
Low32 °F (Apr 20, 5:00 am)33% (Apr 20, 1:00 pm)29.92 "Hg (Apr 25, 12:30 am)
Average49 °F71%30.24 "Hg
* Reported Apr 14 1:00 am — Apr 29 1:30 am, Saint Helier, Weather by CustomWeather, © 2017

Note: Actual official high and low records may vary slightly from our data, if they occured in-between our weather recording intervals... More about our weather records

Advertising

Saint Helier Weather History for the Previous 24 Hours

Scroll right to see more
 ConditionsComfort  
Time TempWeatherWind HumidityBarometerVisibility
1:30 am
Sat, Apr 29
43 °FClear.No wind93%30.07 "Hg10 mi
1:00 am45 °FClear.No wind87%30.07 "Hg10 mi
12:30 am45 °FClear.No wind87%30.07 "Hg10 mi
12:00 am45 °FClear.No wind87%30.07 "Hg10 mi
11:30 pm
Fri, Apr 28
45 °FClear.No wind87%30.07 "Hg10 mi
11:00 pm46 °FClear.No wind87%30.07 "Hg10 mi
10:30 pm46 °FClear.2 mph87%30.09 "Hg10 mi
10:00 pm46 °FClear.No wind87%30.09 "Hg10 mi
9:30 pm46 °FClear.1 mph87%30.07 "Hg10 mi
9:00 pm48 °FClear.1 mph82%30.07 "Hg10 mi
8:30 pm48 °FClear.2 mph82%30.07 "Hg10 mi
8:00 pm50 °FSunny.3 mph71%30.07 "Hg10 mi
7:30 pm52 °FSunny.6 mph67%30.07 "Hg10 mi
7:00 pm52 °FPassing clouds.7 mph62%30.07 "HgN/A
6:30 pm54 °FPassing clouds.7 mph63%30.07 "HgN/A
6:00 pm54 °FSunny.9 mph54%30.07 "Hg10 mi
5:30 pm55 °FPassing clouds.9 mph51%30.07 "HgN/A
5:00 pm55 °FSunny.9 mph59%30.07 "Hg10 mi
4:30 pm54 °FSunny.10 mph63%30.07 "Hg10 mi
4:00 pm54 °FOvercast.10 mph63%30.07 "HgN/A
3:30 pm55 °FMostly cloudy.9 mph63%30.07 "HgN/A
3:00 pm54 °FBroken clouds.8 mph67%30.09 "HgN/A
2:30 pm52 °FBroken clouds.7 mph82%30.09 "HgN/A
2:00 pm52 °FPartly sunny.10 mph77%30.09 "HgN/A
1:30 pm52 °FPartly sunny.3 mph82%30.09 "HgN/A
1:00 pm50 °FLight rain. Broken clouds.7 mph82%30.09 "HgN/A
12:30 pm54 °FMostly cloudy.12 mph63%30.09 "HgN/A
12:00 pm54 °FBroken clouds.10 mph63%30.09 "HgN/A
11:30 am54 °FCloudy.9 mph72%30.09 "HgN/A
11:00 am52 °FMore clouds than sun.9 mph72%30.09 "HgN/A
10:30 am52 °FMostly cloudy.12 mph72%30.09 "HgN/A
10:00 am52 °FPartly sunny.10 mph72%30.09 "HgN/A
9:30 am50 °FBroken clouds.8 mph82%30.09 "HgN/A
8:30 am48 °FMostly cloudy.6 mph82%30.07 "HgN/A
8:00 am48 °FMore clouds than sun.6 mph87%30.07 "HgN/A
7:30 am46 °FPartly sunny.6 mph87%30.07 "HgN/A
7:00 am46 °FBroken clouds.6 mph87%30.07 "HgN/A
6:30 am48 °FPartly sunny.5 mph82%30.07 "HgN/A
6:00 am50 °FMostly cloudy.8 mph71%30.07 "HgN/A
5:30 am50 °FPartly cloudy.9 mph71%30.07 "HgN/A
5:00 am50 °FMostly cloudy.9 mph71%30.07 "HgN/A
4:30 am50 °FMostly cloudy.9 mph71%30.07 "HgN/A
4:00 am50 °FOvercast.10 mph71%30.07 "HgN/A
3:30 am50 °FMostly cloudy.12 mph71%30.09 "HgN/A
3:00 am50 °FPassing clouds.13 mph71%30.09 "HgN/A
2:30 am50 °FMostly cloudy.10 mph71%30.09 "HgN/A
2:00 am50 °FPartly cloudy.12 mph71%30.09 "HgN/A
Weather by CustomWeather, © 2017

See weather overviewHow to use our weather pages